Tracking 21092 objects as of 14-Aug-2020
HD Live streaming from Space Station
objects crossing your sky now
Track the most recent launched group of Starlink satellites

GSAT 1

Track GSAT 1 now!
GSAT 1 is classified as:


NORAD ID: 26745
Int'l Code: 2001-015A
Perigee: 33,856.8 km
Apogee: 35,797.2 km
Inclination: 12.0 °
Period: 1,387.0 minutes
Semi major axis: 41198 km
RCS: 3.1622 m2 (large)
Launch date: April 18, 2001
Source: India (IND)
Launch site: SRIHARIKOTA (SRI)
aabbcc
Your satellite tracking list
Your tracking list is empty




NASA's NSSDC Master Catalog

Two Line Element Set (TLE):
1 26745U 01015A   20226.62409894 -.00000082 +00000-0 +00000-0 0  9996
2 26745 011.9713 020.1390 0235494 238.8580 297.6222 01.03821708073374
Source of the keplerian elements: AFSPC